| time (UTC) | temp F | wind direction | speed knots | gust knots | rain 1hr in | rain 24hr in | rain mn in | humidity % | barometer mb |
| 20260902212001 | 96 | 196 | 0.9 | 4.3 | 0.00 | 0.00 | 0.00 | 58 | 1013.2 |
| 20260902211501 | 95 | 244 | 1.7 | 4.3 | 0.00 | 0.00 | 0.00 | 57 | 1013.1 |
| 20260902211221 | 96 | 242 | 1.7 | 4.3 | 0.00 | 0.00 | 0.00 | 57 | 1013.2 |
| 20260902210502 | 96 | 98 | 0.9 | 3.5 | 0.00 | 0.00 | 0.00 | 56 | 1013.3 |
| 20260902210001 | 96 | 257 | 0.9 | 3.5 | 0.00 | 0.00 | 0.00 | 57 | 1013.3 |
| 20260902205501 | 96 | 244 | 1.7 | 6.1 | 0.00 | 0.00 | 0.00 | 56 | 1013.3 |
| 20260902205001 | 96 | 219 | 1.7 | 6.1 | 0.00 | 0.00 | 0.00 | 56 | 1013.3 |
| 20260902204500 | 96 | 221 | 1.7 | 4.3 | 0.00 | 0.00 | 0.00 | 57 | 1013.3 |
| 20260902204224 | 96 | 180 | 1.7 | 4.3 | 0.00 | 0.00 | 0.00 | 56 | 1013.4 |
| 20260902203500 | 96 | 239 | 0.9 | 3.5 | 0.00 | 0.00 | 0.00 | 56 | 1013.4 |
| 20260902203002 | 96 | 247 | 0.9 | 2.6 | 0.00 | 0.00 | 0.00 | 56 | 1013.4 |
| 20260902202500 | 96 | 311 | 1.7 | 6.1 | 0.00 | 0.00 | 0.00 | 57 | 1013.4 |
| 20260902202001 | 96 | 232 | 1.7 | 6.1 | 0.00 | 0.00 | 0.00 | 57 | 1013.5 |
| 20260902201459 | 96 | 203 | 1.7 | 4.3 | 0.00 | 0.00 | 0.00 | 56 | 1013.4 |
| 20260902201000 | 97 | 249 | 1.7 | 3.5 | 0.00 | 0.00 | 0.00 | 57 | 1013.4 |
| 20260902200715 | 96 | 216 | 1.7 | 5.2 | 0.00 | 0.00 | 0.00 | 57 | 1013.5 |
| 20260902195958 | 96 | 237 | 1.7 | 5.2 | 0.00 | 0.00 | 0.00 | 58 | 1013.6 |
| 20260902195458 | 96 | 227 | 1.7 | 4.3 | 0.00 | 0.00 | 0.00 | 58 | 1013.6 |
| 20260902194956 | 95 | 325 | 1.7 | 5.2 | 0.00 | 0.00 | 0.00 | 57 | 1013.7 |
| 20260902194457 | 96 | 118 | 1.7 | 5.2 | 0.00 | 0.00 | 0.00 | 58 | 1013.8 |
| 20260902193956 | 96 | 259 | 1.7 | 5.2 | 0.00 | 0.00 | 0.00 | 58 | 1013.9 |
| 20260902193456 | 96 | 249 | 0.9 | 5.2 | 0.00 | 0.00 | 0.00 | 57 | 1013.9 |
| 20260902192957 | 96 | 217 | 1.7 | 7.8 | 0.00 | 0.00 | 0.00 | 58 | 1013.9 |
| 20260902192454 | 96 | 268 | 1.7 | 7.8 | 0.00 | 0.00 | 0.00 | 58 | 1014.0 |
| 20260902191954 | 95 | 211 | 0.9 | 4.3 | 0.00 | 0.00 | 0.00 | 59 | 1014.0 |
| 20260902191455 | 95 | 256 | 0.9 | 5.2 | 0.00 | 0.00 | 0.00 | 60 | 1014.1 |
| 20260902190952 | 95 | 225 | 1.7 | 5.2 | 0.00 | 0.00 | 0.00 | 58 | 1014.1 |
| 20260902190453 | 95 | 242 | 0.9 | 4.3 | 0.00 | 0.00 | 0.00 | 57 | 1014.2 |
| 20260902185948 | 96 | 306 | 0.9 | 4.3 | 0.00 | 0.00 | 0.00 | 58 | 1014.3 |
| 20260902185442 | 96 | 277 | 0.9 | 3.5 | 0.00 | 0.00 | 0.00 | 60 | 1014.2 |
| 20260902185428 | 95 | 253 | 1.7 | 3.5 | 0.00 | 0.00 | 0.00 | 58 | 1014.3 |
| 20260902184444 | 95 | 261 | 1.7 | 5.2 | 0.00 | 0.00 | 0.00 | 59 | 1014.3 |
| 20260902184208 | 95 | 176 | 1.7 | 5.2 | 0.00 | 0.00 | 0.00 | 58 | 1014.3 |
| 20260902183438 | 95 | 211 | 1.7 | 5.2 | 0.00 | 0.00 | 0.00 | 58 | 1014.3 |
| 20260902182936 | 95 | 256 | 1.7 | 4.3 | 0.00 | 0.00 | 0.00 | 58 | 1014.3 |
| 20260902182436 | 94 | 121 | 1.7 | 4.3 | 0.00 | 0.00 | 0.00 | 59 | 1014.4 |
| 20260902181938 | 94 | 145 | 0.9 | 2.6 | 0.00 | 0.00 | 0.00 | 60 | 1014.3 |
| 20260902181653 | 95 | 156 | 0.9 | 2.6 | 0.00 | 0.00 | 0.00 | 59 | 1014.4 |
| 20260902180936 | 95 | 268 | 1.7 | 6.1 | 0.00 | 0.00 | 0.00 | 59 | 1014.5 |
| 20260902180435 | 95 | 195 | 1.7 | 6.1 | 0.00 | 0.00 | 0.00 | 58 | 1014.6 |
| 20260902175936 | 95 | 251 | 1.7 | 7.0 | 0.00 | 0.00 | 0.00 | 59 | 1014.6 |
| 20260902175434 | 94 | 147 | 1.7 | 7.0 | 0.00 | 0.00 | 0.00 | 59 | 1014.5 |
| 20260902174936 | 95 | 22 | 0.9 | 4.3 | 0.00 | 0.00 | 0.00 | 58 | 1014.6 |
| 20260902174659 | 94 | 157 | 1.7 | 4.3 | 0.00 | 0.00 | 0.00 | 60 | 1014.7 |
| 20260902173933 | 95 | 251 | 1.7 | 5.2 | 0.00 | 0.00 | 0.00 | 58 | 1014.8 |
| 20260902173433 | 96 | 98 | 1.7 | 5.2 | 0.00 | 0.00 | 0.00 | 58 | 1014.8 |
| 20260902172934 | 95 | 237 | 1.7 | 4.3 | 0.00 | 0.00 | 0.00 | 58 | 1014.9 |
| 20260902172425 | 95 | 143 | 0.9 | 4.3 | 0.00 | 0.00 | 0.00 | 57 | 1015.0 |
| 20260902171918 | 95 | 249 | 0.9 | 5.2 | 0.00 | 0.00 | 0.00 | 59 | 1015.0 |
| 20260902171645 | 95 | 131 | 0.9 | 5.2 | 0.00 | 0.00 | 0.00 | 59 | 1015.1 |
| 20260902170908 | 95 | 327 | 1.7 | 4.3 | 0.00 | 0.00 | 0.00 | 61 | 1015.0 |
| 20260902170401 | 94 | 228 | 0.9 | 3.5 | 0.00 | 0.00 | 0.00 | 61 | 1015.1 |
| 20260902170119 | 94 | 248 | 1.7 | 7.0 | 0.00 | 0.00 | 0.00 | 61 | 1015.1 |
| 20260902165349 | 93 | 263 | 1.7 | 7.0 | 0.00 | 0.00 | 0.00 | 62 | 1015.1 |
| 20260902164843 | 92 | 250 | 1.7 | 4.3 | 0.00 | 0.00 | 0.00 | 61 | 1015.2 |
| 20260902164336 | 93 | 356 | 1.7 | 7.0 | 0.00 | 0.00 | 0.00 | 62 | 1015.3 |
| 20260902164316 | 93 | 224 | 1.7 | 7.0 | 0.00 | 0.00 | 0.00 | 60 | 1015.3 |
| 20260902163324 | 93 | 132 | 2.6 | 5.2 | 0.00 | 0.00 | 0.00 | 61 | 1015.3 |
| 20260902162818 | 93 | 148 | 1.7 | 5.2 | 0.00 | 0.00 | 0.00 | 60 | 1015.3 |
| 20260902162313 | 94 | 216 | 0.9 | 2.6 | 0.00 | 0.00 | 0.00 | 62 | 1015.3 |
| 20260902161806 | 93 | 327 | 0.9 | 4.3 | 0.00 | 0.00 | 0.00 | 63 | 1015.3 |
| 20260902161301 | 93 | 292 | 0.9 | 6.1 | 0.00 | 0.00 | 0.00 | 62 | 1015.2 |
| 20260902160755 | 92 | 255 | 1.7 | 6.1 | 0.00 | 0.00 | 0.00 | 63 | 1015.3 |
| 20260902160515 | 92 | 112 | 1.7 | 5.2 | 0.00 | 0.00 | 0.00 | 62 | 1015.3 |
| 20260902155745 | 92 | 295 | 1.7 | 5.2 | 0.00 | 0.00 | 0.00 | 63 | 1015.5 |
| 20260902155237 | 91 | 217 | 1.7 | 5.2 | 0.00 | 0.00 | 0.00 | 65 | 1015.5 |
| 20260902154731 | 91 | 220 | 1.7 | 3.5 | 0.00 | 0.00 | 0.00 | 65 | 1015.5 |
| 20260902154225 | 91 | 151 | 1.7 | 3.5 | 0.00 | 0.00 | 0.00 | 64 | 1015.5 |
| 20260902153720 | 91 | 66 | 0.9 | 4.3 | 0.00 | 0.00 | 0.00 | 66 | 1015.5 |
| 20260902153213 | 91 | 171 | 1.7 | 4.3 | 0.00 | 0.00 | 0.00 | 67 | 1015.6 |
| 20260902152707 | 91 | 226 | 0.9 | 3.5 | 0.00 | 0.00 | 0.00 | 66 | 1015.6 |
| 20260902152200 | 90 | 252 | 0.9 | 3.5 | 0.00 | 0.00 | 0.00 | 69 | 1015.7 |
| 20260902151655 | 89 | 194 | 0.9 | 2.6 | 0.00 | 0.00 | 0.00 | 69 | 1015.7 |
| 20260902151410 | 89 | 284 | 0.9 | 5.2 | 0.00 | 0.00 | 0.00 | 71 | 1015.7 |
| 20260902150643 | 89 | 144 | 0.9 | 5.2 | 0.00 | 0.00 | 0.00 | 70 | 1015.7 |
| 20260902150136 | 88 | 164 | 0.9 | 2.6 | 0.00 | 0.00 | 0.00 | 71 | 1015.7 |
| 20260902145630 | 88 | 250 | 0.9 | 1.7 | 0.00 | 0.00 | 0.00 | 74 | 1015.8 |
| 20260902145125 | 87 | 250 | 0.9 | 1.7 | 0.00 | 0.00 | 0.00 | 74 | 1015.8 |
| 20260902144619 | 87 | 29 | 0.0 | 1.7 | 0.00 | 0.00 | 0.00 | 75 | 1015.8 |
| 20260902144114 | 86 | 282 | 0.0 | 1.7 | 0.00 | 0.00 | 0.00 | 75 | 1015.8 |
| 20260902143606 | 85 | 149 | 0.9 | 1.7 | 0.00 | 0.00 | 0.00 | 76 | 1015.8 |
| 20260902143100 | 85 | 149 | 0.9 | 2.6 | 0.00 | 0.00 | 0.00 | 77 | 1015.7 |
| 20260902142822 | 84 | 135 | 0.9 | 2.6 | 0.00 | 0.00 | 0.00 | 78 | 1015.8 |
| 20260902142049 | 84 | 195 | 0.9 | 2.6 | 0.00 | 0.00 | 0.00 | 79 | 1015.8 |
| 20260902141543 | 83 | 196 | 0.9 | 2.6 | 0.00 | 0.00 | 0.00 | 79 | 1015.7 |
| 20260902141037 | 82 | 196 | 0.9 | 1.7 | 0.00 | 0.00 | 0.00 | 81 | 1015.6 |
| 20260902141019 | 82 | 196 | 0.9 | 2.6 | 0.00 | 0.00 | 0.00 | 82 | 1015.6 |
| 20260902140024 | 81 | 196 | 0.9 | 3.5 | 0.00 | 0.00 | 0.00 | 83 | 1015.7 |
| 20260902135519 | 80 | 196 | 0.9 | 3.5 | 0.00 | 0.00 | 0.00 | 84 | 1015.7 |
| 20260902135235 | 79 | 212 | 0.9 | 3.5 | 0.00 | 0.00 | 0.00 | 87 | 1015.7 |
| 20260902134508 | 78 | 211 | 0.9 | 1.7 | 0.00 | 0.00 | 0.00 | 88 | 1015.8 |
| 20260902134223 | 77 | 211 | 0.9 | 2.6 | 0.00 | 0.00 | 0.00 | 90 | 1015.8 |
| 20260902133456 | 76 | 211 | 0.9 | 2.6 | 0.00 | 0.00 | 0.00 | 92 | 1015.8 |
| 20260902132949 | 76 | 211 | 0.9 | 1.7 | 0.00 | 0.00 | 0.00 | 93 | 1015.8 |
| 20260902132443 | 75 | 211 | 0.9 | 1.7 | 0.00 | 0.00 | 0.00 | 93 | 1015.8 |
| 20260902131937 | 75 | 211 | 0.9 | 1.7 | 0.00 | 0.00 | 0.00 | 93 | 1015.7 |
| 20260902131431 | 74 | 211 | 0.9 | 0.9 | 0.00 | 0.00 | 0.00 | 94 | 1015.7 |
| 20260902130927 | 74 | 211 | 0.9 | 1.7 | 0.00 | 0.00 | 0.00 | 94 | 1015.6 |
| 20260902130419 | 74 | 211 | 0.9 | 1.7 | 0.00 | 0.00 | 0.00 | 94 | 1015.7 |
| 20260902125912 | 74 | 211 | 0.9 | 0.9 | 0.00 | 0.00 | 0.00 | 94 | 1015.7 |
| 20260902125407 | 74 | 211 | 0.0 | 0.9 | 0.00 | 0.00 | 0.00 | 94 | 1015.7 |
| 20260902124901 | 73 | 211 | 0.0 | 0.9 | 0.00 | 0.00 | 0.00 | 94 | 1015.7 |
| 20260902124624 | 73 | 211 | 0.0 | 0.9 | 0.00 | 0.00 | 0.00 | 94 | 1015.7 |
| 20260902123849 | 73 | 211 | 0.9 | 0.9 | 0.00 | 0.00 | 0.00 | 94 | 1015.6 |
| 20260902123343 | 73 | 211 | 0.9 | 0.9 | 0.00 | 0.00 | 0.00 | 94 | 1015.6 |
| 20260902122837 | 73 | 211 | 0.0 | 0.9 | 0.00 | 0.00 | 0.00 | 94 | 1015.6 |
| 20260902122331 | 73 | 211 | 0.0 | 0.9 | 0.00 | 0.00 | 0.00 | 94 | 1015.5 |
| 20260902121824 | 73 | 211 | 0.0 | 0.9 | 0.00 | 0.00 | 0.00 | 94 | 1015.5 |
| 20260902121319 | 73 | 211 | 0.9 | 1.7 | 0.00 | 0.00 | 0.00 | 94 | 1015.3 |
| 20260902120812 | 72 | 211 | 0.9 | 1.7 | 0.00 | 0.00 | 0.00 | 94 | 1015.3 |
| 20260902120307 | 72 | 211 | 0.9 | 1.7 | 0.00 | 0.00 | 0.00 | 94 | 1015.2 |
| 20260902120020 | 72 | 211 | 0.9 | 1.7 | 0.00 | 0.00 | 0.00 | 94 | 1015.2 |
| 20260902115255 | 72 | 211 | 0.9 | 1.7 | 0.00 | 0.00 | 0.00 | 94 | 1015.2 |
| 20260902114749 | 72 | 211 | 1.7 | 1.7 | 0.00 | 0.00 | 0.00 | 94 | 1015.2 |
| 20260902114242 | 72 | 211 | 1.7 | 1.7 | 0.00 | 0.00 | 0.00 | 94 | 1015.1 |
| 20260902113737 | 72 | 211 | 1.7 | 1.7 | 0.00 | 0.00 | 0.00 | 94 | 1015.0 |
| 20260902113231 | 72 | 211 | 1.7 | 1.7 | 0.00 | 0.00 | 0.00 | 94 | 1015.0 |
| 20260902112949 | 72 | 211 | 1.7 | 2.6 | 0.00 | 0.00 | 0.00 | 94 | 1014.9 |
| 20260902112219 | 72 | 211 | 1.7 | 2.6 | 0.00 | 0.00 | 0.00 | 94 | 1015.0 |
| 20260902111716 | 72 | 211 | 1.7 | 1.7 | 0.00 | 0.00 | 0.00 | 94 | 1014.9 |
| 20260902111216 | 72 | 211 | 1.7 | 2.6 | 0.00 | 0.00 | 0.00 | 94 | 1014.8 |
| 20260902110717 | 72 | 211 | 1.7 | 2.6 | 0.00 | 0.00 | 0.00 | 94 | 1014.7 |
| 20260902110215 | 72 | 211 | 1.7 | 2.6 | 0.00 | 0.00 | 0.00 | 94 | 1014.7 |
| 20260902105716 | 72 | 242 | 1.7 | 2.6 | 0.00 | 0.00 | 0.00 | 94 | 1014.7 |
| 20260902105215 | 72 | 242 | 1.7 | 2.6 | 0.00 | 0.00 | 0.00 | 94 | 1014.8 |
| 20260902104713 | 72 | 242 | 1.7 | 2.6 | 0.00 | 0.00 | 0.00 | 94 | 1014.8 |
| 20260902104215 | 72 | 242 | 1.7 | 1.7 | 0.00 | 0.00 | 0.00 | 94 | 1014.7 |
| 20260902103713 | 73 | 242 | 1.7 | 1.7 | 0.00 | 0.00 | 0.00 | 94 | 1014.8 |
| 20260902103215 | 73 | 242 | 1.7 | 1.7 | 0.00 | 0.00 | 0.00 | 94 | 1014.8 |
| 20260902102714 | 73 | 242 | 1.7 | 1.7 | 0.00 | 0.00 | 0.00 | 93 | 1014.8 |
| 20260902102438 | 73 | 242 | 1.7 | 1.7 | 0.00 | 0.00 | 0.00 | 93 | 1014.7 |
| 20260902101711 | 73 | 242 | 1.7 | 1.7 | 0.00 | 0.00 | 0.00 | 93 | 1014.7 |
| 20260902101209 | 73 | 242 | 1.7 | 1.7 | 0.00 | 0.00 | 0.00 | 93 | 1014.7 |
| 20260902100711 | 73 | 242 | 1.7 | 2.6 | 0.00 | 0.00 | 0.00 | 93 | 1014.7 |
| 20260902100210 | 73 | 242 | 1.7 | 2.6 | 0.00 | 0.00 | 0.00 | 93 | 1014.7 |
| 20260902095711 | 73 | 242 | 1.7 | 1.7 | 0.00 | 0.00 | 0.00 | 93 | 1014.7 |
| 20260902095211 | 73 | 242 | 1.7 | 1.7 | 0.00 | 0.00 | 0.00 | 93 | 1014.6 |
| 20260902094711 | 73 | 242 | 1.7 | 1.7 | 0.00 | 0.00 | 0.00 | 93 | 1014.6 |
| 20260902094211 | 73 | 242 | 1.7 | 1.7 | 0.00 | 0.00 | 0.00 | 93 | 1014.6 |
| 20260902093711 | 73 | 242 | 1.7 | 1.7 | 0.00 | 0.00 | 0.00 | 93 | 1014.6 |
| 20260902093206 | 73 | 242 | 1.7 | 2.6 | 0.00 | 0.00 | 0.00 | 93 | 1014.6 |
| 20260902092706 | 73 | 242 | 1.7 | 2.6 | 0.00 | 0.00 | 0.00 | 93 | 1014.6 |
| 20260902092207 | 73 | 242 | 1.7 | 1.7 | 0.00 | 0.00 | 0.00 | 93 | 1014.6 |
| 20260902091706 | 73 | 242 | 1.7 | 1.7 | 0.00 | 0.00 | 0.00 | 93 | 1014.6 |
| 20260902091206 | 73 | 242 | 1.7 | 1.7 | 0.00 | 0.00 | 0.00 | 93 | 1014.5 |
| 20260902090932 | 73 | 242 | 1.7 | 1.7 | 0.00 | 0.00 | 0.00 | 93 | 1014.5 |
| 20260902090206 | 73 | 242 | 1.7 | 1.7 | 0.00 | 0.00 | 0.00 | 93 | 1014.4 |
| 20260902085706 | 73 | 242 | 1.7 | 1.7 | 0.00 | 0.00 | 0.00 | 93 | 1014.4 |
| 20260902085207 | 73 | 242 | 1.7 | 1.7 | 0.00 | 0.00 | 0.00 | 93 | 1014.3 |
| 20260902084702 | 73 | 242 | 1.7 | 1.7 | 0.00 | 0.00 | 0.00 | 93 | 1014.3 |
| 20260902084201 | 73 | 242 | 1.7 | 1.7 | 0.00 | 0.00 | 0.00 | 93 | 1014.3 |
| 20260902083921 | 73 | 242 | 1.7 | 1.7 | 0.00 | 0.00 | 0.00 | 93 | 1014.2 |
| 20260902083202 | 74 | 242 | 1.7 | 1.7 | 0.00 | 0.00 | 0.00 | 93 | 1014.1 |
| 20260902082702 | 74 | 242 | 1.7 | 1.7 | 0.00 | 0.00 | 0.00 | 93 | 1014.0 |
| 20260902082201 | 74 | 242 | 0.9 | 1.7 | 0.00 | 0.00 | 0.00 | 93 | 1014.0 |
| 20260902081701 | 74 | 242 | 0.9 | 2.6 | 0.00 | 0.00 | 0.00 | 93 | 1014.0 |
| 20260902081203 | 74 | 242 | 0.9 | 2.6 | 0.00 | 0.00 | 0.00 | 93 | 1014.1 |
| 20260902080700 | 74 | 242 | 0.9 | 1.7 | 0.00 | 0.00 | 0.00 | 93 | 1014.0 |
| 20260902080157 | 74 | 242 | 0.9 | 1.7 | 0.00 | 0.00 | 0.00 | 93 | 1013.9 |
| 20260902075658 | 74 | 242 | 0.9 | 1.7 | 0.00 | 0.00 | 0.00 | 92 | 1013.9 |
| 20260902075151 | 74 | 242 | 0.9 | 0.9 | 0.00 | 0.00 | 0.00 | 92 | 1013.9 |
| 20260902074903 | 74 | 242 | 0.9 | 0.9 | 0.00 | 0.00 | 0.00 | 92 | 1013.9 |
| 20260902074401 | 74 | 242 | 0.9 | 1.7 | 0.00 | 0.00 | 0.00 | 92 | 1014.0 |
| 20260902073634 | 74 | 242 | 0.9 | 1.7 | 0.00 | 0.00 | 0.00 | 92 | 1013.9 |
| 20260902073128 | 74 | 242 | 0.9 | 1.7 | 0.00 | 0.00 | 0.00 | 92 | 1013.9 |
| 20260902072622 | 74 | 242 | 0.9 | 1.7 | 0.00 | 0.00 | 0.00 | 92 | 1013.9 |
| 20260902072116 | 74 | 242 | 0.9 | 1.7 | 0.00 | 0.00 | 0.00 | 92 | 1013.9 |
| 20260902072056 | 74 | 242 | 0.9 | 1.7 | 0.00 | 0.00 | 0.00 | 92 | 1013.9 |
| 20260902071103 | 74 | 242 | 1.7 | 1.7 | 0.00 | 0.00 | 0.00 | 92 | 1013.9 |
| 20260902070555 | 74 | 242 | 0.9 | 1.7 | 0.00 | 0.00 | 0.00 | 92 | 1013.9 |
| 20260902070050 | 74 | 242 | 0.9 | 1.7 | 0.00 | 0.00 | 0.00 | 92 | 1013.9 |
| 20260902065545 | 75 | 242 | 0.9 | 1.7 | 0.00 | 0.00 | 0.00 | 92 | 1013.9 |
| 20260902065038 | 75 | 242 | 0.9 | 1.7 | 0.00 | 0.00 | 0.00 | 92 | 1013.9 |
| 20260902064531 | 75 | 242 | 0.9 | 1.7 | 0.00 | 0.00 | 0.00 | 92 | 1014.0 |
| 20260902064027 | 75 | 242 | 0.9 | 1.7 | 0.00 | 0.00 | 0.00 | 92 | 1014.0 |
| 20260902063519 | 75 | 242 | 0.9 | 1.7 | 0.00 | 0.00 | 0.00 | 92 | 1014.1 |
| 20260902063239 | 75 | 242 | 0.9 | 1.7 | 0.00 | 0.00 | 0.00 | 91 | 1014.0 |
| 20260902062508 | 75 | 242 | 0.9 | 1.7 | 0.00 | 0.00 | 0.00 | 91 | 1014.0 |
| 20260902062446 | 75 | 242 | 0.9 | 1.7 | 0.00 | 0.00 | 0.00 | 91 | 1014.0 |
| 20260902061946 | 75 | 242 | 0.9 | 1.7 | 0.00 | 0.00 | 0.00 | 91 | 1014.0 |
| 20260902060950 | 75 | 242 | 0.9 | 1.7 | 0.00 | 0.00 | 0.00 | 91 | 1014.0 |
| 20260902060444 | 75 | 242 | 1.7 | 1.7 | 0.00 | 0.00 | 0.00 | 91 | 1014.0 |
| 20260902055938 | 76 | 242 | 1.7 | 1.7 | 0.00 | 0.00 | 0.00 | 91 | 1014.1 |
| 20260902055432 | 76 | 242 | 0.9 | 1.7 | 0.00 | 0.00 | 0.00 | 90 | 1014.0 |
| 20260902054926 | 76 | 242 | 0.9 | 1.7 | 0.00 | 0.00 | 0.00 | 90 | 1014.1 |
| 20260902054419 | 76 | 242 | 0.9 | 1.7 | 0.00 | 0.00 | 0.00 | 90 | 1014.1 |
| 20260902053914 | 76 | 242 | 0.9 | 1.7 | 0.00 | 0.00 | 0.00 | 90 | 1014.1 |
| 20260902053407 | 76 | 242 | 0.9 | 0.9 | 0.00 | 0.00 | 0.00 | 90 | 1014.1 |
| 20260902052903 | 76 | 242 | 0.9 | 1.7 | 0.00 | 0.00 | 0.00 | 90 | 1014.1 |
| 20260902052400 | 76 | 242 | 0.9 | 1.7 | 0.00 | 0.00 | 0.00 | 89 | 1014.1 |
| 20260902051846 | 76 | 242 | 0.9 | 1.7 | 0.00 | 0.00 | 0.00 | 89 | 1014.1 |
| 20260902051340 | 77 | 242 | 0.9 | 1.7 | 0.00 | 0.00 | 0.00 | 89 | 1014.1 |
| 20260902050834 | 77 | 242 | 0.9 | 1.7 | 0.00 | 0.00 | 0.00 | 89 | 1014.1 |
| 20260902050328 | 77 | 242 | 1.7 | 1.7 | 0.00 | 0.00 | 0.00 | 88 | 1014.1 |
| 20260902045822 | 77 | 242 | 1.7 | 2.6 | 0.00 | 0.00 | 0.00 | 88 | 1014.1 |
| 20260902045541 | 77 | 242 | 1.7 | 2.6 | 0.00 | 0.00 | 0.00 | 88 | 1014.1 |
| 20260902044810 | 77 | 242 | 1.7 | 2.6 | 0.00 | 0.00 | 0.00 | 88 | 1014.1 |
| 20260902044303 | 77 | 245 | 1.7 | 2.6 | 0.00 | 0.00 | 0.00 | 87 | 1014.0 |
| 20260902043758 | 77 | 249 | 1.7 | 2.6 | 0.00 | 0.00 | 0.00 | 87 | 1014.1 |
| 20260902043253 | 78 | 249 | 1.7 | 2.6 | 0.00 | 0.00 | 0.00 | 87 | 1014.1 |
| 20260902042746 | 78 | 249 | 1.7 | 2.6 | 0.00 | 0.00 | 0.00 | 86 | 1014.1 |
| 20260902042441 | 78 | 249 | 0.9 | 2.6 | 0.00 | 0.00 | 0.00 | 86 | 1014.1 |
| 20260902042330 | 78 | 249 | 1.7 | 2.6 | 0.00 | 0.00 | 0.00 | 86 | 1014.1 |
| 20260902041228 | 78 | 249 | 0.9 | 1.7 | 0.00 | 0.00 | 0.00 | 86 | 1014.1 |
| 20260902040722 | 78 | 249 | 0.9 | 1.7 | 0.00 | 0.00 | 0.00 | 85 | 1014.1 |
| 20260902040216 | 78 | 249 | 0.9 | 1.7 | 0.00 | 0.00 | 0.00 | 85 | 1014.1 |
| 20260902035710 | 78 | 249 | 0.9 | 1.7 | 0.00 | 0.00 | 0.00 | 84 | 1014.1 |
| 20260902035204 | 78 | 249 | 0.9 | 1.7 | 0.00 | 0.00 | 0.00 | 84 | 1014.1 |
| 20260902034658 | 79 | 249 | 0.9 | 1.7 | 0.00 | 0.00 | 0.00 | 83 | 1014.1 |
| 20260902034152 | 79 | 249 | 0.9 | 1.7 | 0.00 | 0.00 | 0.00 | 83 | 1014.1 |
| 20260902033645 | 79 | 249 | 0.9 | 1.7 | 0.00 | 0.00 | 0.00 | 82 | 1014.1 |
| 20260902033140 | 79 | 249 | 0.9 | 1.7 | 0.00 | 0.00 | 0.00 | 82 | 1014.1 |
| 20260902032633 | 79 | 249 | 0.9 | 1.7 | 0.00 | 0.00 | 0.00 | 82 | 1014.0 |
| 20260902032128 | 79 | 249 | 0.9 | 0.9 | 0.00 | 0.00 | 0.00 | 82 | 1014.0 |
| 20260902031623 | 79 | 249 | 0.9 | 0.9 | 0.00 | 0.00 | 0.00 | 82 | 1014.0 |
| 20260902031117 | 79 | 249 | 0.9 | 0.9 | 0.00 | 0.00 | 0.00 | 82 | 1014.0 |
| 20260902030609 | 80 | 249 | 0.9 | 0.9 | 0.00 | 0.00 | 0.00 | 82 | 1014.0 |
| 20260902030334 | 80 | 249 | 0.9 | 0.9 | 0.00 | 0.00 | 0.00 | 81 | 1014.0 |
| 20260902025557 | 80 | 249 | 0.9 | 0.9 | 0.00 | 0.00 | 0.00 | 81 | 1014.0 |
| 20260902025052 | 80 | 249 | 0.9 | 0.9 | 0.00 | 0.00 | 0.00 | 81 | 1014.0 |
| 20260902024805 | 80 | 249 | 0.9 | 1.7 | 0.00 | 0.00 | 0.00 | 80 | 1014.1 |
| 20260902024040 | 80 | 249 | 0.9 | 1.7 | 0.00 | 0.00 | 0.00 | 79 | 1014.0 |
| 20260902023534 | 81 | 249 | 0.9 | 0.9 | 0.00 | 0.00 | 0.00 | 79 | 1014.1 |
| 20260902023028 | 81 | 249 | 0.9 | 0.9 | 0.00 | 0.00 | 0.00 | 78 | 1014.0 |
| 20260902022523 | 81 | 249 | 0.9 | 0.9 | 0.00 | 0.00 | 0.00 | 78 | 1014.1 |
| 20260902022016 | 81 | 249 | 0.9 | 0.9 | 0.00 | 0.00 | 0.00 | 78 | 1014.0 |
| 20260902021513 | 81 | 249 | 0.9 | 0.9 | 0.00 | 0.00 | 0.00 | 77 | 1014.0 |
| 20260902021003 | 81 | 249 | 0.0 | 0.9 | 0.00 | 0.00 | 0.00 | 77 | 1014.0 |
| 20260902020458 | 82 | 249 | 0.0 | 0.9 | 0.00 | 0.00 | 0.00 | 77 | 1014.0 |
| 20260902015951 | 82 | 249 | 0.0 | 0.9 | 0.00 | 0.00 | 0.00 | 76 | 1014.0 |
| 20260902015446 | 82 | 249 | 0.9 | 0.9 | 0.00 | 0.00 | 0.00 | 77 | 1013.9 |
| 20260902014939 | 82 | 249 | 0.9 | 0.9 | 0.00 | 0.00 | 0.00 | 77 | 1013.9 |
| 20260902014924 | 82 | 249 | 0.9 | 1.7 | 0.00 | 0.00 | 0.00 | 77 | 1013.9 |
| 20260902013928 | 82 | 249 | 0.9 | 1.7 | 0.00 | 0.00 | 0.00 | 76 | 1013.9 |
| 20260902013421 | 82 | 249 | 0.9 | 0.9 | 0.00 | 0.00 | 0.00 | 76 | 1013.8 |
| 20260902012916 | 82 | 249 | 0.9 | 0.9 | 0.00 | 0.00 | 0.00 | 76 | 1013.8 |
| 20260902012410 | 82 | 249 | 0.9 | 1.7 | 0.00 | 0.00 | 0.00 | 75 | 1013.8 |
| 20260902011904 | 82 | 249 | 0.9 | 1.7 | 0.00 | 0.00 | 0.00 | 75 | 1013.7 |
| 20260902011358 | 82 | 249 | 0.9 | 0.9 | 0.00 | 0.00 | 0.00 | 74 | 1013.6 |
| 20260902010852 | 83 | 249 | 0.9 | 1.7 | 0.00 | 0.00 | 0.00 | 74 | 1013.5 |
| 20260902010610 | 83 | 249 | 0.9 | 1.7 | 0.00 | 0.00 | 0.00 | 73 | 1013.5 |
| 20260902005841 | 83 | 249 | 0.9 | 1.7 | 0.00 | 0.00 | 0.00 | 73 | 1013.5 |
| 20260902005334 | 84 | 249 | 0.9 | 1.7 | 0.00 | 0.00 | 0.00 | 72 | 1013.4 |
| 20260902004828 | 84 | 249 | 0.9 | 1.7 | 0.00 | 0.00 | 0.00 | 71 | 1013.4 |
| 20260902004323 | 85 | 249 | 0.9 | 1.7 | 0.00 | 0.00 | 0.00 | 70 | 1013.4 |
| 20260902003817 | 85 | 249 | 0.9 | 1.7 | 0.00 | 0.00 | 0.00 | 69 | 1013.4 |
| 20260902003532 | 85 | 249 | 0.9 | 0.9 | 0.00 | 0.00 | 0.00 | 69 | 1013.4 |
| 20260902002803 | 85 | 249 | 0.9 | 1.7 | 0.00 | 0.00 | 0.00 | 68 | 1013.4 |
| 20260902002258 | 86 | 249 | 0.9 | 1.7 | 0.00 | 0.00 | 0.00 | 68 | 1013.4 |
| 20260902002014 | 86 | 232 | 0.9 | 0.9 | 0.00 | 0.00 | 0.00 | 68 | 1013.5 |
| 20260902001734 | 86 | 232 | 0.9 | 0.9 | 0.00 | 0.00 | 0.00 | 68 | 1013.5 |
| 20260902000740 | 86 | 232 | 0.0 | 0.9 | 0.00 | 0.00 | 0.00 | 67 | 1013.6 |
| 20260902000234 | 86 | 232 | 0.0 | 0.9 | 0.00 | 0.00 | 0.00 | 67 | 1013.6 |
| 20260901235728 | 86 | 232 | 0.0 | 1.7 | 0.00 | 0.00 | 0.00 | 67 | 1013.7 |
| 20260901235450 | 87 | 232 | 0.9 | 1.7 | 0.00 | 0.00 | 0.00 | 66 | 1013.7 |
| 20260901234716 | 87 | 232 | 0.9 | 0.9 | 0.00 | 0.00 | 0.00 | 66 | 1013.6 |
| 20260901234210 | 87 | 232 | 0.9 | 0.9 | 0.00 | 0.00 | 0.00 | 66 | 1013.7 |
| 20260901233925 | 87 | 232 | 0.9 | 0.9 | 0.00 | 0.00 | 0.00 | 65 | 1013.7 |
| 20260901233158 | 88 | 232 | 0.9 | 0.9 | 0.00 | 0.00 | 0.00 | 65 | 1013.8 |
| 20260901232652 | 88 | 232 | 0.9 | 0.9 | 0.00 | 0.00 | 0.00 | 65 | 1013.8 |
| 20260901232405 | 88 | 232 | 0.0 | 0.9 | 0.00 | 0.00 | 0.00 | 65 | 1013.8 |
| 20260901231639 | 89 | 232 | 0.0 | 0.9 | 0.00 | 0.00 | 0.00 | 65 | 1013.8 |
| 20260901231135 | 89 | 232 | 0.0 | 0.9 | 0.00 | 0.00 | 0.00 | 65 | 1013.9 |
| 20260901230628 | 89 | 232 | 0.0 | 2.6 | 0.00 | 0.00 | 0.00 | 65 | 1013.8 |
| 20260901230342 | 90 | 232 | 0.0 | 2.6 | 0.00 | 0.00 | 0.00 | 64 | 1013.8 |
| 20260901225621 | 90 | 231 | 0.0 | 0.9 | 0.00 | 0.00 | 0.00 | 64 | 1013.8 |
| 20260901225119 | 90 | 230 | 0.0 | 0.9 | 0.00 | 0.00 | 0.00 | 63 | 1013.8 |
| 20260901224620 | 91 | 230 | 0.0 | 1.7 | 0.00 | 0.00 | 0.00 | 62 | 1013.8 |
| 20260901224119 | 91 | 230 | 0.0 | 1.7 | 0.00 | 0.00 | 0.00 | 62 | 1013.7 |
| 20260901223620 | 91 | 231 | 0.0 | 1.7 | 0.00 | 0.00 | 0.00 | 62 | 1013.7 |
| 20260901223120 | 91 | 231 | 0.9 | 3.5 | 0.00 | 0.00 | 0.00 | 61 | 1013.7 |
| 20260901222619 | 92 | 154 | 0.0 | 3.5 | 0.00 | 0.00 | 0.00 | 60 | 1013.6 |
| 20260901222604 | 92 | 250 | 0.0 | 2.6 | 0.00 | 0.00 | 0.00 | 61 | 1013.6 |
| 20260901221619 | 93 | 247 | 0.0 | 2.6 | 0.00 | 0.00 | 0.00 | 60 | 1013.7 |
| 20260901221121 | 93 | 247 | 0.9 | 2.6 | 0.00 | 0.00 | 0.00 | 59 | 1013.7 |
| 20260901220620 | 94 | 243 | 0.9 | 2.6 | 0.00 | 0.00 | 0.00 | 58 | 1013.7 |
| 20260901220344 | 94 | 238 | 0.9 | 4.3 | 0.00 | 0.00 | 0.00 | 57 | 1013.6 |
| 20260901215615 | 94 | 216 | 0.9 | 4.3 | 0.00 | 0.00 | 0.00 | 58 | 1013.6 |
| 20260901215115 | 95 | 229 | 0.9 | 3.5 | 0.00 | 0.00 | 0.00 | 56 | 1013.5 |
| 20260901214615 | 96 | 273 | 0.9 | 2.6 | 0.00 | 0.00 | 0.00 | 55 | 1013.6 |
| 20260901214115 | 96 | 256 | 0.9 | 2.6 | 0.00 | 0.00 | 0.00 | 54 | 1013.5 |
| 20260901213616 | 96 | 256 | 0.9 | 3.5 | 0.00 | 0.00 | 0.00 | 55 | 1013.5 |
| 20260901213114 | 96 | 261 | 0.9 | 3.5 | 0.00 | 0.00 | 0.00 | 54 | 1013.6 |
| 20260901212614 | 96 | 250 | 0.9 | 2.6 | 0.00 | 0.00 | 0.00 | 55 | 1013.6 |